Location: Newark
(13.9174°N, 1.2431°E)
Time: 00:14:43
(UTC+00:00)

Envisat - Visible Passes

Search period start: 16 October 2019 00:00
Search period end: 26 October 2019 00:00
Orbit: 764 x 766 km, 98.1° (Epoch: 15 October)

Date Brightness Start Highest point End Pass type
(mag) Time Alt. Az. Time Alt. Az. Time Alt. Az.
16 Oct 2.9 18:11:07 10° SSE 18:16:10 70° ENE 18:21:12 10° N visible
17 Oct 5.6 19:14:39 10° SSW 19:18:21 20° W 19:22:04 10° NW visible
18 Oct 3.7 18:36:38 10° S 18:41:36 57° W 18:46:34 10° NNW visible
19 Oct 3.1 18:00:02 10° SSE 18:04:56 51° ENE 18:09:50 10° N visible
20 Oct 5.1 19:02:49 10° SSW 19:07:05 27° W 19:11:21 10° NW visible
21 Oct 3.1 18:25:18 10° S 18:30:22 78° WSW 18:35:26 10° NNW visible
22 Oct 3.5 17:49:04 10° SE 17:53:43 37° ENE 17:58:22 10° N visible
22 Oct 6.1 19:30:15 10° SW 19:32:36 13° W 19:34:58 10° WNW visible
23 Oct 4.5 18:51:11 10° SSW 18:55:49 37° W 19:00:29 10° NNW visible
24 Oct 2.9 18:14:03 10° SSE 18:19:07 79° ENE 18:24:10 10° N visible
25 Oct 5.7 19:17:55 10° SW 19:21:20 18° W 19:24:45 10° NW visible
